Weather History for Robstown, TX

Change the Weather History Date:

Wednesday, December 26, 2012

  Actual Average (KCRP) Record (KCRP)
Temperature  
Mean Temperature 43 °F 57 °F  
Max Temperature 52 °F 67 °F 83 °F (1950)
Min Temperature 34 °F 47 °F 24 °F (2004)
Degree Days  
Heating Degree Days 22 9  
Month to date heating degree days 204  
Since 1 July heating degree days 305  
Cooling Degree Days 0 1  
Month to date cooling degree days 44  
Year to date cooling degree days 3519  
Moisture  
Dew Point 26 °F    
Average Humidity 50    
Maximum Humidity 68    
Minimum Humidity 37    
Precipitation  
Precipitation 0.00 in 0.06 in 1.18 in (1991)
Month to date precipitation 1.50  
Year to date precipitation 31.43  
Snow  
Snow 0.00 in - - ()
Month to date snowfall  
Since 1 July snowfall  
Snow Depth -    
Sea Level Pressure  
Sea Level Pressure 30.19 in    
Wind  
Wind Speed 7 mph (North)    
Max Wind Speed 17 mph    
Max Gust Speed 23 mph    
Visibility 10 miles    
Events      
T = Trace of Precipitation, MM = Missing Value Source: NWS Daily Summary

Daily Weather History Graph

Daily Weather History Graph

Search for Another Location

Airport:

Trip Planner

Search our weather history database for the weather conditions in past years. The results will help you decide how hot, cold, wet, or windy it might be!

Date:

Astronomy

Dec. 26, 2012 Rise Set
Actual Time 7:19 AM CST 5:43 PM CST
Civil Twilight 6:54 AM CST 6:09 PM CST
Nautical Twilight 6:24 AM CST 6:38 PM CST
Astronomical Twilight 5:56 AM CST 7:07 PM CST
Moon 4:35 PM CST (12/26) 5:46 AM CST (12/26)
Length of Visible Light 11h 15m
Length of Day
10h 23m
Waxing Gibbous, 97% of the Moon is Illuminated
Dec 26
Waxing Gibbous
Dec 28
Full
Jan 4
Last Quarter
Jan 11
New
Jan 18
First Quarter

Hourly Weather History & Observations

Time (CST) Temp. Windchill Dew Point Humidity Pressure Visibility Wind Dir Wind Speed Gust Speed Precip Events Conditions
12:15 AM 41.4 °F 37.6 °F 23.2 °F 48% 30.17 in 10.0 mi NW 5.8 mph - N/A   Clear
12:35 AM 41.2 °F 35.0 °F 23.2 °F 49% 30.17 in 10.0 mi NNW 10.4 mph - N/A   Clear
12:55 AM 40.8 °F 34.1 °F 23.4 °F 50% 30.17 in 10.0 mi NNW 11.5 mph - N/A   Clear
1:15 AM 40.1 °F 34.1 °F 23.0 °F 51% 30.17 in 10.0 mi NNW 9.2 mph - N/A   Clear
1:35 AM 40.3 °F 33.4 °F 23.7 °F 52% 30.17 in 10.0 mi NNW 11.5 mph - N/A   Clear
1:55 AM 40.1 °F 34.1 °F 23.9 °F 52% 30.17 in 10.0 mi NNW 9.2 mph - N/A   Clear
2:15 AM 39.7 °F 31.9 °F 23.9 °F 53% 30.17 in 10.0 mi NNW 13.8 mph 18.4 mph N/A   Clear
2:35 AM 39.6 °F 31.7 °F 23.5 °F 53% 30.17 in 10.0 mi NNW 13.8 mph - N/A   Clear
3:15 AM 38.8 °F 33.2 °F 22.6 °F 52% 30.18 in 10.0 mi NNW 8.1 mph - N/A   Clear
3:35 AM 37.8 °F - 22.1 °F 53% 30.19 in 10.0 mi Calm Calm - N/A   Clear
3:55 AM 37.4 °F - 22.3 °F 54% 30.20 in 10.0 mi Calm Calm - N/A   Clear
4:15 AM 36.1 °F - 21.9 °F 56% 30.21 in 10.0 mi Calm Calm - N/A   Clear
4:35 AM 36.7 °F 34.1 °F 22.1 °F 56% 30.21 in 10.0 mi NNW 3.5 mph - N/A   Clear
4:55 AM 36.1 °F 30.6 °F 22.1 °F 57% 30.21 in 10.0 mi NNW 6.9 mph - N/A   Clear
5:35 AM 35.6 °F 30.7 °F 21.4 °F 56% 30.23 in 10.0 mi NW 5.8 mph - N/A   Clear
5:55 AM 35.6 °F 29.9 °F 21.7 °F 57% 30.23 in 10.0 mi North 6.9 mph - N/A   Clear
6:15 AM 34.2 °F 26.2 °F 21.7 °F 60% 30.23 in 10.0 mi North 10.4 mph - N/A   Clear
6:35 AM 34.2 °F 27.5 °F 21.2 °F 59% 30.24 in 10.0 mi North 8.1 mph - N/A   Clear
6:55 AM 34.2 °F 26.8 °F 21.2 °F 59% 30.24 in 10.0 mi North 9.2 mph - N/A   Clear
7:15 AM 34.5 °F 26.7 °F 21.2 °F 58% 30.25 in 10.0 mi North 10.4 mph - N/A   Clear
7:35 AM 34.5 °F 26.7 °F 21.6 °F 59% 30.26 in 10.0 mi North 10.4 mph - N/A   Clear
7:55 AM 35.4 °F 27.8 °F 21.6 °F 57% 30.27 in 10.0 mi NNW 10.4 mph - N/A   Clear
8:15 AM 36.9 °F 28.2 °F 21.6 °F 54% 30.27 in 10.0 mi North 13.8 mph - N/A   Clear
8:35 AM 37.6 °F 28.4 °F 21.7 °F 53% 30.27 in 10.0 mi North 16.1 mph - N/A   Clear
8:55 AM 38.5 °F 29.2 °F 21.2 °F 50% 30.27 in 10.0 mi North 17.3 mph 23.0 mph N/A   Clear
9:15 AM 39.6 °F 30.6 °F 22.8 °F 51% 30.28 in 10.0 mi North 17.3 mph - N/A   Clear
9:35 AM 40.1 °F 32.4 °F 23.9 °F 52% 30.29 in 10.0 mi North 13.8 mph - N/A   Clear
9:55 AM 41.0 °F 34.3 °F 23.4 °F 50% 30.30 in 10.0 mi North 11.5 mph - N/A   Clear
10:15 AM 41.2 °F 34.1 °F 24.3 °F 51% 30.30 in 10.0 mi North 12.7 mph 19.6 mph N/A   Clear
10:35 AM 42.8 °F 37.0 °F 24.4 °F 48% 30.31 in 10.0 mi NNW 10.4 mph 17.3 mph N/A   Clear
10:55 AM 43.2 °F 36.2 °F 24.4 °F 48% 30.30 in 10.0 mi NW 13.8 mph - N/A   Clear
11:15 AM 44.2 °F 40.3 °F 24.8 °F 46% 30.29 in 10.0 mi North 6.9 mph 17.3 mph N/A   Clear
11:35 AM 45.5 °F 41.8 °F 24.8 °F 44% 30.28 in 10.0 mi NNW 6.9 mph 17.3 mph N/A   Clear
11:55 AM 46.0 °F 42.5 °F 25.0 °F 44% 30.26 in 10.0 mi NW 6.9 mph - N/A   Clear
12:15 PM 46.6 °F - 25.7 °F 44% 30.25 in 10.0 mi NW 9.2 mph - N/A   Clear
12:35 PM 47.8 °F - 26.2 °F 43% 30.24 in 10.0 mi North 6.9 mph - N/A   Clear
12:55 PM 48.6 °F - 26.2 °F 42% 30.22 in 10.0 mi North 10.4 mph - N/A   Clear
1:15 PM 48.7 °F - 26.1 °F 41% 30.20 in 10.0 mi Calm Calm - N/A   Clear
1:35 PM 50.7 °F - 26.8 °F 40% 30.18 in 10.0 mi NW 3.5 mph - N/A   Clear
1:55 PM 50.7 °F - 27.1 °F 40% 30.18 in 10.0 mi North 8.1 mph - N/A   Clear
2:15 PM 51.3 °F - 27.1 °F 39% 30.17 in 10.0 mi NNW 3.5 mph - N/A   Clear
2:35 PM 51.8 °F - 27.1 °F 39% 30.16 in 10.0 mi North 3.5 mph - N/A   Clear
2:55 PM 52.2 °F - 27.0 °F 38% 30.15 in 10.0 mi NW 6.9 mph - N/A   Clear
3:15 PM 52.9 °F - 27.3 °F 37% 30.14 in 10.0 mi North 5.8 mph - N/A   Clear
3:35 PM 52.7 °F - 27.5 °F 38% 30.14 in 10.0 mi Calm Calm - N/A   Clear
3:55 PM 52.9 °F - 27.5 °F 38% 30.13 in 10.0 mi North 4.6 mph - N/A   Clear
4:15 PM 52.7 °F - 27.5 °F 38% 30.13 in 10.0 mi NNE 3.5 mph - N/A   Clear
4:35 PM 52.3 °F - 27.5 °F 38% 30.13 in 10.0 mi Calm Calm - N/A   Clear
4:55 PM 52.7 °F - 27.5 °F 38% 30.12 in 10.0 mi NE 4.6 mph - N/A   Clear
5:15 PM 52.2 °F - 27.5 °F 39% 30.12 in 10.0 mi NE 5.8 mph - N/A   Clear
5:35 PM 51.4 °F - 27.1 °F 39% 30.12 in 10.0 mi Calm Calm - N/A   Clear
5:55 PM 50.5 °F - 27.0 °F 40% 30.13 in 10.0 mi Calm Calm - N/A   Clear
6:15 PM 50.0 °F - 27.3 °F 41% 30.13 in 10.0 mi Calm Calm - N/A   Clear
6:35 PM 48.9 °F - 27.9 °F 44% 30.14 in 10.0 mi Calm Calm - N/A   Clear
6:55 PM 46.4 °F 43.5 °F 23.7 °F 41% 30.14 in 10.0 mi East 5.8 mph - N/A   Clear
7:15 PM 46.2 °F 42.7 °F 27.5 °F 48% 30.15 in 10.0 mi ESE 6.9 mph - N/A   Clear
7:35 PM 45.5 °F 42.5 °F 27.3 °F 49% 30.15 in 10.0 mi ESE 5.8 mph - N/A   Clear
7:55 PM 44.8 °F 41.0 °F 28.2 °F 52% 30.14 in 10.0 mi ESE 6.9 mph - N/A   Clear
8:15 PM 44.1 °F 40.8 °F 28.4 °F 54% 30.15 in 10.0 mi ESE 5.8 mph - N/A   Clear
8:35 PM 43.9 °F 40.5 °F 29.7 °F 57% 30.15 in 10.0 mi SE 5.8 mph - N/A   Clear
8:55 PM 43.2 °F 39.7 °F 28.6 °F 56% 30.15 in 10.0 mi SE 5.8 mph - N/A   Clear
9:15 PM 42.4 °F 38.1 °F 28.9 °F 59% 30.15 in 10.0 mi SE 6.9 mph - N/A   Clear
9:35 PM 42.6 °F 39.9 °F 29.8 °F 61% 30.15 in 10.0 mi SSE 4.6 mph - N/A   Clear
9:55 PM 42.8 °F 40.1 °F 30.9 °F 63% 30.15 in 10.0 mi SE 4.6 mph - N/A   Clear
10:15 PM 41.9 °F 39.0 °F 30.0 °F 63% 30.15 in 10.0 mi SE 4.6 mph - N/A   Clear
10:35 PM 40.5 °F 38.4 °F 28.9 °F 64% 30.15 in 10.0 mi ESE 3.5 mph - N/A   Clear
10:55 PM 42.4 °F - 31.8 °F 66% 30.14 in 10.0 mi Calm Calm - N/A   Clear
11:15 PM 42.1 °F - 31.6 °F 67% 30.14 in 10.0 mi Calm Calm - N/A   Clear
11:35 PM 41.9 °F - 32.0 °F 68% 30.13 in 10.0 mi Calm Calm - N/A   Mostly Cloudy
11:55 PM 43.9 °F - 33.8 °F 68% 30.12 in 10.0 mi Calm Calm - N/A   Overcast